Flag for Germany Weather past 2 weeks in Cottbus, Brandenburg, Germany

Now
78 °F

Overcast.


Feels Like: 79 °F
Forecast: 60 / 73 °F
Wind: 3 mph from North

Location: Cottbus

Current Time: Jul 11, 2014 at 4:55:12 PM

Latest Report: Jul 11, 2014 at 4:00 PM


Visibility: 22 mi

Pressure: 29.77 "Hg

Humidity: 47%

Dew point: 56 °F

Location of CottbusLocation

Historic Weather in Cottbus — Graph

°F

Cottbus temperature yesterday

Maximum temperature yesterday: 75 °F (at 12:00 PM)
Minimum temperature yesterday: 61 °F (at 3:00 AM)
Average temperature yesterday: 67 °F

Past Weeks' High & Low Weather Summary

 TemperatureHumidityPressure
High87 °F (Jul 4, 5:00 PM)98% (Jun 27, 5:00 AM)30.24 "Hg (Jun 27, 5:00 AM)
Low46 °F (Jun 27, 5:00 AM)23% (Jul 4, 4:00 PM)29.59 "Hg (Jul 9, 2:00 AM)
Average66 °F70%29.91 "Hg
* Reported Jun 26 3:00 PM — Jul 11 3:00 PM, Cottbus, Weather by CustomWeather, © 2014

Note: Actual official high and low records may vary slightly from our data, if they occured in-between our weather recording intervals... More about our weather records

Advertising

Cottbus weather history for previous 24 hours

 ConditionsComfort  
Time TempWeatherWind HumidityBarometerVisibility
3:00 PM
Jul 11
78 °FPartly sunny.5 mph50%29.77 "Hg19 mi
2:00 PM78 °FPartly sunny.5 mph56%29.79 "Hg18 mi
1:00 PM75 °FOvercast.5 mph61%29.81 "Hg14 mi
12:00 PM77 °FOvercast.2 mph53%29.82 "Hg19 mi
11:00 AM75 °FPartly sunny.2 mph67%29.83 "Hg13 mi
10:00 AM72 °FPassing clouds.2 mph69%29.83 "Hg13 mi
9:00 AM69 °FSunny.1 mph70%29.83 "Hg19 mi
8:00 AM66 °FScattered clouds.1 mph80%29.84 "Hg17 mi
7:00 AM62 °FPartly sunny.1 mph88%29.84 "Hg14 mi
6:00 AM60 °FOvercast.1 mph92%29.83 "Hg13 mi
5:00 AM60 °FOvercast.2 mph91%29.82 "Hg19 mi
4:00 AM61 °FOvercast.1 mph87%29.83 "Hg19 mi
3:00 AM59 °FOvercast.2 mph92%29.84 "Hg17 mi
2:00 AM60 °FOvercast.1 mph91%29.84 "Hg19 mi
1:00 AM62 °FOvercast.1 mph87%29.85 "Hg28 mi
12:00 AM61 °FPassing clouds.2 mph86%29.84 "Hg31 mi
11:00 PM
Jul 10
63 °FOvercast.2 mph84%29.84 "Hg37 mi
10:00 PM65 °FOvercast.1 mph78%29.82 "Hg43 mi
9:00 PM68 °FOvercast.1 mph70%29.81 "Hg43 mi
8:00 PM70 °FOvercast.2 mph64%29.79 "Hg43 mi
7:00 PM70 °FOvercast.2 mph62%29.78 "Hg43 mi
5:00 PM69 °FOvercast.5 mph65%29.78 "Hg34 mi
4:00 PM73 °FOvercast.5 mph59%29.76 "Hg22 mi
Weather by CustomWeather, © 2014

See weather overviewHow to use our weather pages